Latest Weather Observations for Gatton

IDQ60801

Issued at 11:05 pm EST Saturday 1 November 2014 (issued every 30 minutes, with the page automatically refreshed every 10 minutes)

About weather observations | Map of weather stations | Latest weather observations for QLD | Other Formats
Station Details ID: 040082 Name: UNIVERSITY OF QUEENSLAND GATTON Lat: -27.54 Lon: 152.34 Height: 89.0 m
Data from the previous 72 hours. | See also: Recent months at Gatton
Date/Time
EST
Temp
°C
App
Temp
°C
Dew
Point
Rel
Hum
%
Delta-T
°C
Wind Press
QNH
hPa
Press
MSL
hPa
Rain
since 9 am
mm
Dir
 
Spd
km/h
Gust
km/h
Spd
kts
Gust
kts
01/11:00pm 21.8 23.8 19.2 85 1.7 W 7 11 4 6 - - 0.8
01/10:30pm 22.5 21.3 18.3 77 2.6 SW 22 35 12 19 - - 0.4
01/10:00pm 24.7 24.2 18.6 69 3.9 SW 19 28 10 15 - - 0.0
01/09:30pm 24.7 25.2 18.4 68 4.0 SSE 13 19 7 10 - - 0.0
01/09:00pm 24.7 25.6 18.4 68 4.0 SSE 11 15 6 8 - - 0.0
01/08:30pm 25.3 26.1 18.2 64 4.5 SE 11 19 6 10 - - 0.0
01/08:00pm 25.6 26.2 17.8 62 4.9 SE 11 13 6 7 - - 0.0
01/07:30pm 27.4 27.3 17.8 55 6.1 SE 15 17 8 9 - - 0.0
01/07:00pm 28.4 28.2 17.6 52 6.9 ESE 15 20 8 11 - - 0.0
01/06:30pm 29.6 27.4 17.8 49 7.5 SE 26 37 14 20 - - 0.0
01/06:00pm 33.1 30.2 11.0 26 12.9 N 17 22 9 12 - - 0.0
01/05:30pm 34.4 30.5 10.9 24 13.8 N 22 32 12 17 - - 0.0
01/05:00pm 35.0 31.5 10.8 23 14.2 N 20 28 11 15 - - 0.0
01/04:30pm 36.2 33.0 11.1 22 14.9 NNW 19 28 10 15 - - 0.0
01/04:00pm 36.2 33.0 11.8 23 14.6 NNE 20 32 11 17 - - 0.0
01/03:30pm 35.2 31.5 11.6 24 14.0 N 22 33 12 18 - - 0.0
01/03:00pm 35.4 32.5 11.1 23 14.4 N 17 30 9 16 - - 0.0
01/02:30pm 36.0 33.5 14.1 27 13.6 N 20 35 11 19 - - 0.0
01/02:00pm 35.1 31.7 13.8 27 13.1 NNE 24 35 13 19 - - 0.0
01/01:30pm 34.3 31.1 14.2 29 12.4 NNE 24 33 13 18 - - 0.0
01/01:00pm 34.2 31.9 15.6 32 11.7 N 22 33 12 18 - - 0.0
01/12:30pm 32.3 28.8 14.4 33 11.0 N 26 37 14 20 - - 0.0
01/12:00pm 32.1 30.1 15.6 37 10.3 NNE 20 33 11 18 - - 0.0
01/11:30am 30.0 27.8 14.9 39 9.3 NNE 20 28 11 15 - - 0.0
01/11:00am 28.7 26.6 15.2 43 8.3 NNE 20 28 11 15 - - 0.0
01/10:30am 28.6 26.5 15.2 44 8.2 NNE 20 28 11 15 - - 0.0
01/10:00am 27.4 26.2 16.1 50 7.0 NNE 17 24 9 13 - - 0.0
01/09:30am 26.3 26.6 16.0 53 6.3 WNW 9 15 5 8 - - 0.0
01/09:00am 26.2 26.9 17.0 57 5.7 S 9 15 5 8 - - 0.0
01/08:30am 25.5 25.6 17.4 61 5.1 SW 13 19 7 10 - - 0.0
01/08:00am 24.4 24.0 16.1 60 5.1 W 13 19 7 10 - - 0.0
01/07:30am 24.5 21.8 16.5 61 4.9 N 26 32 14 17 - - 0.0
01/07:00am 22.7 21.2 16.7 69 3.7 NNE 20 28 11 15 - - 0.0
01/06:30am 22.3 21.8 17.0 72 3.3 NNE 15 20 8 11 - - 0.0
01/06:00am 21.6 21.9 17.0 75 2.8 ENE 11 15 6 8 - - 0.0
01/05:30am 18.6 19.4 16.4 87 1.3 NNE 7 9 4 5 - - 0.0
01/05:00am 18.6 19.2 15.3 81 1.9 N 6 7 3 4 - - 0.0
01/04:30am 19.1 20.6 15.6 80 2.1 NNE 2 7 1 4 - - 0.0
01/04:00am 20.0 20.7 16.0 78 2.4 ENE 7 9 4 5 - - 0.0
01/03:30am 20.8 21.2 17.2 80 2.2 ENE 11 13 6 7 - - 0.0
01/03:00am 20.1 21.1 16.9 82 1.9 ENE 7 9 4 5 - - 0.0
01/02:30am 20.5 21.6 17.1 81 2.1 ENE 7 11 4 6 - - 0.0
01/02:00am 20.9 22.1 17.3 80 2.2 E 7 11 4 6 - - 0.0
01/01:30am 21.4 22.3 17.6 79 2.4 SE 9 11 5 6 - - 0.0
01/01:00am 21.3 22.3 17.7 80 2.2 SE 9 13 5 7 - - 0.0
01/12:30am 21.0 21.7 17.0 78 2.4 SE 9 11 5 6 - - 0.0
01/12:00am 21.6 22.8 17.4 77 2.6 SE 7 11 4 6 - - 0.0
 
Date/Time
EST
Temp
°C
App
Temp
°C
Dew
Point
Rel
Hum
%
Delta-T
°C
Wind Press
QNH
hPa
Press
MSL
hPa
Rain
since 9 am
mm
Dir
 
Spd
km/h
Gust
km/h
Spd
kts
Gust
kts
31/11:30pm 21.5 22.8 17.5 78 2.5 SE 7 9 4 5 - - 0.0
31/11:00pm 20.7 21.3 16.9 79 2.3 SE 9 11 5 6 - - 0.0
31/10:30pm 21.3 22.2 16.7 75 2.8 ESE 7 9 4 5 - - 0.0
31/10:00pm 21.6 22.5 16.6 73 3.0 SE 7 9 4 5 - - 0.0
31/09:30pm 22.6 23.3 17.1 71 3.4 ESE 9 11 5 6 - - 0.0
31/09:00pm 23.6 23.6 17.3 67 3.9 E 13 15 7 8 - - 0.0
31/08:30pm 24.2 24.1 17.0 64 4.5 E 13 19 7 10 - - 0.0
31/08:00pm 24.6 25.0 17.3 64 4.5 E 11 15 6 8 - - 0.0
31/07:30pm 25.7 25.0 17.4 60 5.2 ENE 17 20 9 11 - - 0.0
31/07:00pm 26.2 24.8 17.0 57 5.7 ENE 20 24 11 13 - - 0.0
31/06:30pm 27.1 25.3 17.8 56 5.9 ENE 24 30 13 16 - - 0.0
31/06:00pm 28.4 27.1 18.2 54 6.5 ENE 22 32 12 17 - - 0.0
31/05:30pm 29.8 28.3 17.6 48 7.8 NE 22 35 12 19 - - 0.0
31/05:00pm 30.8 28.3 17.1 43 8.7 NE 26 35 14 19 - - 0.0
31/04:30pm 32.3 29.6 16.6 39 9.9 NE 26 39 14 21 - - 0.0
31/04:00pm 34.2 31.0 13.1 28 12.8 NNE 22 32 12 17 - - 0.0
31/03:30pm 34.3 31.7 13.7 29 12.6 ENE 20 30 11 16 - - 0.0
31/03:00pm 34.6 32.1 13.4 28 12.9 NNE 19 24 10 13 - - 0.0
31/02:30pm 34.0 31.7 11.8 26 13.2 ENE 15 26 8 14 - - 0.0
31/02:00pm 34.9 33.9 15.7 31 12.1 NNE 15 28 8 15 - - 0.0
31/01:30pm 34.5 33.0 16.8 34 11.3 ENE 20 30 11 16 - - 0.0
31/01:00pm 33.7 32.1 16.5 35 10.9 E 20 30 11 16 - - 0.0
31/12:30pm 32.8 31.3 16.2 37 10.5 E 19 28 10 15 - - 0.0
31/12:00pm 31.3 30.5 17.2 42 9.0 E 17 24 9 13 - - 0.0
31/11:30am 30.3 30.0 17.4 46 8.2 E 15 24 8 13 - - 0.0
31/11:00am 29.5 29.7 17.7 49 7.5 ENE 13 19 7 10 - - 0.0
31/10:30am 28.5 28.8 17.1 50 7.2 E 11 20 6 11 - - 0.0
31/10:00am 27.4 27.1 17.3 54 6.4 E 15 20 8 11 - - 0.0
31/09:30am 27.2 27.4 17.7 56 6.0 ENE 13 20 7 11 - - 0.0
31/09:00am 27.0 27.9 18.3 59 5.6 NE 11 24 6 13 - - 0.0
31/08:30am 25.4 26.0 17.6 62 4.9 E 11 15 6 8 - - 0.0
31/08:00am 24.1 25.7 18.3 70 3.7 E 7 13 4 7 - - 0.0
31/07:30am 23.0 25.1 18.1 74 3.1 E 4 9 2 5 - - 0.0
31/07:00am 22.4 25.0 18.4 78 2.5 E 2 7 1 4 - - 0.0
31/06:30am 21.9 23.4 18.1 79 2.4 SE 7 9 4 5 - - 0.0
31/06:00am 21.7 23.8 18.1 80 2.2 ESE 4 6 2 3 - - 0.0
31/05:30am 21.6 24.3 17.8 79 2.4 CALM 0 0 0 0 - - 0.0
31/05:00am 21.4 24.1 17.8 80 2.2 CALM 0 0 0 0 - - 0.0
31/04:30am 21.4 24.2 18.0 81 2.1 CALM 0 0 0 0 - - 0.0
31/04:00am 21.4 23.1 18.0 81 2.1 WNW 6 7 3 4 - - 0.0
31/03:30am 21.5 23.2 18.1 81 2.1 ESE 6 7 3 4 - - 0.0
31/03:00am 20.9 22.0 17.9 83 1.9 SE 9 13 5 7 - - 0.0
31/02:30am 20.7 22.1 17.9 84 1.7 ESE 7 9 4 5 - - 0.0
31/02:00am 20.8 22.2 17.8 83 1.9 SE 7 9 4 5 - - 0.0
31/01:30am 21.1 22.6 18.1 83 1.9 SSE 7 9 4 5 - - 0.0
31/01:00am 21.1 22.9 18.3 84 1.8 SSE 6 7 3 4 - - 0.0
31/12:30am 20.4 22.0 17.8 85 1.6 SSE 6 7 3 4 - - 0.0
31/12:00am 20.3 21.8 17.7 85 1.6 SE 6 9 3 5 - - 0.0
 
Date/Time
EST
Temp
°C
App
Temp
°C
Dew
Point
Rel
Hum
%
Delta-T
°C
Wind Press
QNH
hPa
Press
MSL
hPa
Rain
since 9 am
mm
Dir
 
Spd
km/h
Gust
km/h
Spd
kts
Gust
kts
30/11:30pm 20.3 21.7 17.7 85 1.6 SE 7 11 4 6 - - 0.0
30/11:00pm 20.6 21.6 17.8 84 1.7 SSE 9 11 5 6 - - 0.0
30/10:30pm 20.8 22.4 17.8 83 1.9 SSE 6 9 3 5 - - 0.0
30/10:00pm 20.6 21.7 17.2 81 2.1 SSE 7 9 4 5 - - 0.0
30/09:30pm 21.4 22.9 17.6 79 2.4 ESE 6 9 3 5 - - 0.0
30/09:00pm 21.7 22.7 17.7 78 2.5 SE 9 13 5 7 - - 0.0
30/08:30pm 22.5 23.0 17.4 73 3.2 ESE 11 15 6 8 - - 0.0
30/08:00pm 23.0 23.5 17.5 71 3.4 ESE 11 15 6 8 - - 0.0
30/07:30pm 23.8 23.7 17.8 69 3.8 ESE 15 19 8 10 - - 0.0
30/07:00pm 24.7 23.6 17.7 65 4.4 E 20 28 11 15 - - 0.0
30/06:30pm 25.7 24.5 17.4 60 5.2 E 20 28 11 15 - - 0.0
30/06:00pm 26.9 25.3 17.4 56 6.0 E 22 28 12 15 - - 0.0
30/05:30pm 28.7 26.5 16.9 48 7.4 ENE 24 32 13 17 - - 0.0
30/05:00pm 30.3 27.8 17.0 44 8.4 ENE 26 33 14 18 - - 0.0
30/04:30pm 31.5 29.1 16.3 40 9.6 ENE 24 32 13 17 - - 0.0
30/04:00pm 32.9 31.6 11.4 27 12.6 ENE 9 13 5 7 - - 0.0
30/03:30pm 33.1 32.5 11.6 27 12.7 N 6 13 3 7 - - 0.0
30/03:00pm 32.9 30.9 11.4 27 12.6 NE 13 20 7 11 - - 0.0
30/02:30pm 33.0 31.6 12.1 28 12.4 ENE 11 20 6 11 - - 0.0
30/02:00pm 32.3 30.6 12.5 30 11.8 ENE 13 26 7 14 - - 0.0
30/01:30pm 31.8 30.3 13.1 32 11.2 E 13 22 7 12 - - 0.0
30/01:00pm 31.6 30.9 14.3 35 10.6 E 11 22 6 12 - - 0.0
30/12:30pm 30.9 29.7 14.1 36 10.2 E 13 20 7 11 - - 0.0
30/12:00pm 29.5 28.7 14.1 39 9.3 ENE 11 17 6 9 - - 0.0
30/11:30am 28.9 28.3 14.7 42 8.6 NE 11 19 6 10 - - 0.0
30/11:00am 28.4 27.2 13.9 41 8.7 ENE 13 20 7 11 - - 0.0
30/10:30am 27.4 27.2 14.8 46 7.6 ENE 9 20 5 11 - - 0.0
30/10:00am 26.4 25.9 14.8 49 7.0 N 11 17 6 9 - - 0.0
30/09:30am 26.7 26.8 15.4 50 6.9 ENE 9 17 5 9 - - 0.0
30/09:00am 24.8 23.8 14.6 53 6.1 ENE 13 20 7 11 - - 0.0
30/08:30am 24.1 23.5 14.5 55 5.7 NNE 11 17 6 9 - - 0.0
30/08:00am 23.3 23.1 14.6 58 5.2 ENE 9 15 5 8 - - 0.0
30/07:30am 22.2 22.8 14.3 61 4.6 N 4 9 2 5 - - 0.0
30/07:00am 20.6 21.3 14.5 68 3.6 SW 4 7 2 4 - - 0.0
30/06:30am 18.4 20.1 15.3 82 1.8 CALM 0 6 0 3 - - 0.0
30/06:00am 16.3 17.9 14.8 91 0.9 CALM 0 0 0 0 - - 0.0
30/05:30am 13.8 14.6 12.5 92 0.7 CALM 0 0 0 0 - - 0.0
30/05:00am 13.5 14.2 12.1 91 0.8 CALM 0 0 0 0 - - 0.0
30/04:30am 13.3 13.8 11.5 89 1.0 CALM 0 0 0 0 - - 0.0
30/04:00am 13.9 14.7 12.5 91 0.8 CALM 0 0 0 0 - - 0.0
30/03:30am 14.1 14.9 12.5 90 0.9 CALM 0 0 0 0 - - 0.0
30/03:00am 14.2 15.0 12.4 89 1.0 CALM 0 0 0 0 - - 0.0
30/02:30am 14.7 15.5 12.6 87 1.2 CALM 0 0 0 0 - - 0.0
30/02:00am 15.9 17.3 14.4 91 0.9 CALM 0 0 0 0 - - 0.0
30/01:30am 16.2 17.2 14.4 89 1.0 SE 2 6 1 3 - - 0.0
30/01:00am 16.6 17.3 14.6 88 1.2 SSE 4 7 2 4 - - 0.0
30/12:30am 16.9 17.2 14.5 86 1.4 SE 6 7 3 4 - - 0.0
30/12:00am 17.5 18.0 15.0 85 1.5 ESE 6 7 3 4 - - 0.0
 
Date/Time
EST
Temp
°C
App
Temp
°C
Dew
Point
Rel
Hum
%
Delta-T
°C
Wind Press
QNH
hPa
Press
MSL
hPa
Rain
since 9 am
mm
Dir
 
Spd
km/h
Gust
km/h
Spd
kts
Gust
kts
29/11:30pm 17.8 18.0 14.3 80 2.0 ESE 6 7 3 4 - - 0.0

Other Formats:

Comma delimited format used in spreadsheet applications
http://www.bom.gov.au/fwo/IDQ60801/IDQ60801.94562.axf

JavaScript Object Notation format (JSON) in row-major order
http://www.bom.gov.au/fwo/IDQ60801/IDQ60801.94562.json